Time,TemperatureF,DewpointF,PressureIn,WindDirection,WindDirectionDegrees,WindSpeedMPH,WindSpeedGustMPH,Humidity,HourlyPrecipIn,Conditions,Clouds,dailyrainin,SoftwareType,DateUTC
2013-09-10 00:03:00,77.0,62.0,-100.00,WSW,255,1.0,7.0,59,0.00,,,-99.99,,2013-09-10 05:03:00,
2013-09-10 00:13:00,77.0,62.0,-100.00,WSW,255,1.0,7.0,59,0.00,,,-99.99,,2013-09-10 05:13:00,
2013-09-10 00:53:00,75.0,61.0,-100.00,South,190,1.0,7.0,61,0.00,,,-99.99,,2013-09-10 05:53:00,
2013-09-10 01:03:00,75.0,61.0,-100.00,South,190,1.0,7.0,61,0.00,,,-99.99,,2013-09-10 06:03:00,
2013-09-10 01:12:00,75.0,61.0,-100.00,South,190,1.0,7.0,61,0.00,,,-99.99,,2013-09-10 06:12:00,
2013-09-10 01:52:00,73.0,60.0,-100.00,SSE,150,0.0,3.0,64,0.00,,,-99.99,,2013-09-10 06:52:00,
2013-09-10 02:01:00,73.0,60.0,-100.00,SSE,150,0.0,3.0,64,0.00,,,-99.99,,2013-09-10 07:01:00,
2013-09-10 02:12:00,73.0,60.0,-100.00,SSE,150,0.0,3.0,64,0.00,,,-99.99,,2013-09-10 07:12:00,
2013-09-10 03:52:00,71.0,60.0,-100.00,WSW,255,0.0,1.0,70,0.00,,,-99.99,,2013-09-10 08:52:00,
2013-09-10 04:02:00,71.0,60.0,-100.00,WSW,255,0.0,1.0,70,0.00,,,-99.99,,2013-09-10 09:02:00,
2013-09-10 04:11:00,71.0,60.0,-100.00,WSW,255,0.0,1.0,70,0.00,,,-99.99,,2013-09-10 09:11:00,
2013-09-10 04:54:00,68.0,61.0,-100.00,SE,140,0.0,1.0,77,0.00,,,-99.99,,2013-09-10 09:54:00,
2013-09-10 05:03:00,68.0,61.0,-100.00,SE,140,0.0,1.0,77,0.00,,,-99.99,,2013-09-10 10:03:00,
2013-09-10 05:13:00,68.0,61.0,-100.00,SE,140,0.0,1.0,77,0.00,,,-99.99,,2013-09-10 10:13:00,
2013-09-10 05:53:00,67.0,61.0,-100.00,NE,45,0.0,1.0,80,0.00,,,-99.99,,2013-09-10 10:53:00,
2013-09-10 06:03:00,67.0,61.0,-100.00,NE,45,0.0,1.0,80,0.00,,,-99.99,,2013-09-10 11:03:00,
2013-09-10 06:12:00,67.0,61.0,-100.00,NE,45,0.0,1.0,80,0.00,,,-99.99,,2013-09-10 11:12:00,
2013-09-10 06:52:00,67.0,61.0,-100.00,South,180,0.0,1.0,80,0.00,,,-99.99,,2013-09-10 11:52:00,
2013-09-10 07:02:00,67.0,61.0,-100.00,South,180,0.0,1.0,80,0.00,,,-99.99,,2013-09-10 12:02:00,
2013-09-10 07:12:00,67.0,61.0,-100.00,South,180,0.0,1.0,80,0.00,,,-99.99,,2013-09-10 12:12:00,
2013-09-10 07:52:00,67.0,61.0,-100.00,SSW,195,0.0,1.0,80,0.00,,,-99.99,,2013-09-10 12:52:00,
2013-09-10 08:02:00,67.0,61.0,-100.00,SSW,195,0.0,1.0,80,0.00,,,-99.99,,2013-09-10 13:02:00,
2013-09-10 08:11:00,67.0,61.0,-100.00,SSW,195,0.0,1.0,80,0.00,,,-99.99,,2013-09-10 13:11:00,
2013-09-10 08:52:00,74.0,60.0,-100.00,WSW,250,1.0,4.0,61,0.00,,,-99.99,,2013-09-10 13:52:00,
2013-09-10 09:02:00,74.0,60.0,-100.00,WSW,250,1.0,4.0,61,0.00,,,-99.99,,2013-09-10 14:02:00,
2013-09-10 09:11:00,74.0,60.0,-100.00,WSW,250,1.0,4.0,61,0.00,,,-99.99,,2013-09-10 14:11:00,
2013-09-10 09:52:00,79.0,61.0,-100.00,WSW,255,2.0,6.0,54,0.00,,,-99.99,,2013-09-10 14:52:00,
2013-09-10 10:02:00,79.0,61.0,-100.00,WSW,255,2.0,6.0,54,0.00,,,-99.99,,2013-09-10 15:02:00,
2013-09-10 10:11:00,79.0,61.0,-100.00,WSW,255,2.0,6.0,54,0.00,,,-99.99,,2013-09-10 15:11:00,
2013-09-10 13:52:00,84.0,58.0,-100.00,NW,305,2.0,12.0,41,0.00,,,-99.99,,2013-09-10 18:52:00,
2013-09-10 14:02:00,84.0,58.0,-100.00,NW,305,2.0,12.0,41,0.00,,,-99.99,,2013-09-10 19:02:00,
2013-09-10 14:11:00,84.0,58.0,-100.00,NW,305,2.0,12.0,41,0.00,,,-99.99,,2013-09-10 19:11:00,
2013-09-10 15:52:00,85.0,56.0,-100.00,West,275,1.0,7.0,38,0.00,,,-99.99,,2013-09-10 20:52:00,
2013-09-10 16:03:00,85.0,56.0,-100.00,West,275,1.0,7.0,38,0.00,,,-99.99,,2013-09-10 21:03:00,
2013-09-10 16:11:00,85.0,56.0,-100.00,West,275,1.0,7.0,38,0.00,,,-99.99,,2013-09-10 21:11:00,
2013-09-10 16:54:00,82.0,56.0,-100.00,North,0,2.0,6.0,41,0.00,,,-99.99,,2013-09-10 21:54:00,
2013-09-10 17:04:00,82.0,56.0,-100.00,North,0,2.0,6.0,41,0.00,,,-99.99,,2013-09-10 22:04:00,
2013-09-10 17:14:00,82.0,56.0,-100.00,North,0,2.0,6.0,41,0.00,,,-99.99,,2013-09-10 22:14:00,
2013-09-10 18:53:00,76.0,57.0,-100.00,North,0,3.0,7.0,53,0.00,,,-99.99,,2013-09-10 23:53:00,
2013-09-10 19:02:00,76.0,57.0,-100.00,North,0,3.0,7.0,53,0.00,,,-99.99,,2013-09-11 00:02:00,
2013-09-10 19:11:00,76.0,57.0,-100.00,North,0,3.0,7.0,53,0.00,,,-99.99,,2013-09-11 00:11:00,
2013-09-10 19:52:00,73.0,60.0,-100.00,North,0,1.0,4.0,64,0.00,,,-99.99,,2013-09-11 00:52:00,
2013-09-10 20:02:00,73.0,60.0,-100.00,North,0,1.0,4.0,64,0.00,,,-99.99,,2013-09-11 01:02:00,
2013-09-10 20:11:00,73.0,60.0,-100.00,North,0,1.0,4.0,64,0.00,,,-99.99,,2013-09-11 01:11:00,
2013-09-10 20:42:00,71.0,61.0,-100.00,NNE,30,0.0,1.0,71,0.00,,,-99.99,,2013-09-11 01:42:00,
2013-09-10 20:53:00,71.0,61.0,-100.00,NNE,30,0.0,1.0,71,0.00,,,-99.99,,2013-09-11 01:53:00,
2013-09-10 21:02:00,71.0,61.0,-100.00,NNE,30,0.0,1.0,71,0.00,,,-99.99,,2013-09-11 02:02:00,
2013-09-10 21:11:00,71.0,61.0,-100.00,NNE,30,0.0,1.0,71,0.00,,,-99.99,,2013-09-11 02:11:00,
2013-09-10 21:52:00,70.0,62.0,-100.00,ESE,120,0.0,1.0,75,0.00,,,-99.99,,2013-09-11 02:52:00,
2013-09-10 22:02:00,70.0,62.0,-100.00,ESE,120,0.0,1.0,75,0.00,,,-99.99,,2013-09-11 03:02:00,
2013-09-10 22:12:00,70.0,62.0,-100.00,ESE,120,0.0,1.0,75,0.00,,,-99.99,,2013-09-11 03:12:00,
2013-09-10 22:55:00,69.0,62.0,-100.00,NE,35,0.0,1.0,77,0.00,,,-99.99,,2013-09-11 03:55:00,
2013-09-10 23:05:00,69.0,62.0,-100.00,NE,35,0.0,1.0,77,0.00,,,-99.99,,2013-09-11 04:05:00,
2013-09-10 23:14:00,69.0,62.0,-100.00,NE,35,0.0,1.0,77,0.00,,,-99.99,,2013-09-11 04:14:00,
2013-09-10 23:54:00,68.0,62.0,-100.00,ESE,115,0.0,1.0,81,0.00,,,-99.99,,2013-09-11 04:54:00,